CAPE
0 0 0 0 0 0 0 0 0 0 0 0 0 0 0 0 0 0 0 0 0 0 0 0 0 0 0 0 0 0 0 0 0 0 27 1 0 0 0 0 0 0 0 0 0
0 0 0 0 0 0 0 0 0 0 0 0 0 0 0 0 0 0 0 0 0 0 0 0 0 0 0 0 0 0 0 0 0 0 12 0 0 0 0 0 0 0 0 0 0
0 0 0 0 0 0 0 0 0 0 0 0 0 0 0 0 0 0 0 0 0 0 0 0 0 0 0 0 0 0 0 0 0 0 6 1 0 0 0 0 0 0 0 0 0
0 0 0 0 0 0 0 0 0 0 0 0 0 0 0 0 0 0 0 0 0 0 0 0 0 0 0 0 0 0 0 0 0 0 16 26 13 0 0 0 0 0 0 0 0
0 0 0 0 0 0 0 0 0 0 0 0 0 0 0 0 0 0 0 0 0 0 0 0 0 0 0 0 0 0 0 0 0 0 6 14 2 10 0 0 0 0 0 0 0
0 0 0 0 0 0 0 0 0 0 0 0 0 0 0 0 0 0 0 0 0 0 0 0 0 0 0 0 0 0 0 0 0 0 0 9 4 12 0 0 0 0 0 7 27
0 0 0 0 0 0 0 0 0 0 0 0 0 0 0 0 0 0 0 0 0 0 0 0 0 0 0 0 0 0 0 0 0 0 0 7 36 40 0 0 6 0 0 0 19
0 0 0 0 0 0 0 0 0 0 0 0 0 0 0 0 0 0 0 0 0 0 0 0 0 0 0 0 0 0 0 0 0 0 0 6 30 0 13 8 22 17 7 4 13
0 0 0 0 0 0 0 0 0 0 0 0 0 0 0 0 0 0 0 0 0 0 0 0 0 0 0 0 0 0 0 0 0 0 3 20 96 0 5 56 40 55 68 62 119
0 0 0 0 0 0 0 0 0 0 0 0 0 0 0 0 0 0 0 0 0 0 0 0 0 0 0 0 0 0 0 0 0 14 13 43 107 24 1 86 90 225 284 326 333
0 0 0 0 0 0 0 0 0 0 0 0 0 0 0 0 0 0 0 0 0 0 0 0 0 0 0 0 0 0 0 0 0 0 29 14 0 98 56 60 141 316 507 625 710
0 0 0 0 0 0 0 0 0 0 0 0 0 0 0 0 0 0 0 0 0 0 0 0 0 0 0 0 0 0 0 0 0 0 2 34 0 69 0 111 94 336 589 715 1046
0 0 0 0 0 0 0 0 0 0 0 0 0 0 0 0 0 0 0 0 0 0 0 0 0 0 0 0 0 0 0 0 0 0 0 0 0 0 0 47 214 257 631 958 1001
0 0 0 0 0 0 0 0 0 0 0 0 0 0 0 0 0 0 0 0 0 0 0 0 0 0 0 0 0 0 0 0 0 0 0 0 0 0 0 0 150 379 494 755 1185
0 0 0 0 0 0 0 0 0 0 0 0 0 0 0 0 0 0 0 0 0 0 0 0 0 0 0 0 0 0 0 0 0 0 0 0 0 0 0 0 0 263 557 729 1124
0 0 0 0 0 0 0 0 0 0 0 0 0 0 0 0 0 0 0 0 0 0 0 0 0 0 0 0 0 0 0 0 0 0 0 0 0 0 0 0 0 258 588 621 1118
0 0 0 0 0 0 0 0 0 0 0 0 0 0 0 0 0 0 0 0 0 0 0 0 0 0 0 0 0 0 0 0 0 0 0 0 0 0 0 0 0 189 494 734 917
0 0 0 0 0 0 0 0 0 0 0 0 0 0 0 0 0 0 0 0 0 0 0 0 0 0 0 0 0 0 0 0 0 0 0 0 0 0 0 0 0 0 2 0 90
0 0 0 0 0 0 0 0 0 0 0 0 0 0 0 0 0 0 0 0 0 0 0 0 0 0 0 0 0 0 0 0 0 0 0 0 0 0 0 0 0 2 80 13 0
0 0 0 0 0 0 0 0 0 0 0 0 0 0 0 0 0 0 0 0 0 0 0 0 0 0 0 0 0 0 0 0 0 0 0 0 0 0 0 0 0 1 36 97 155
0 0 0 0 0 0 0 0 0 0 0 0 0 0 0 0 0 0 0 0 0 0 0 0 0 0 0 0 0 0 0 0 0 0 0 0 0 0 0 0 0 0 16 103 317
0 0 0 0 0 0 0 0 0 0 0 0 0 0 0 0 0 0 0 0 0 0 0 0 0 0 0 0 0 0 0 0 0 0 0 0 0 0 0 0 0 0 0 193 333
0 0 0 0 0 0 0 0 0 0 0 0 0 0 0 0 0 0 0 0 0 0 0 0 0 0 0 0 0 0 0 0 0 0 0 0 0 0 0 0 0 0 0 42 367
0 0 0 0 0 0 0 0 0 0 0 0 0 0 0 0 0 0 0 0 0 0 0 0 0 0 0 0 0 0 0 0 0 0 0 0 0 0 0 0 0 0 0 0 79
0 0 0 0 0 0 0 0 0 0 0 0 0 0 0 0 0 0 0 0 0 0 0 0 0 0 0 0 0 0 0 0 0 0 0 0 0 0 0 0 0 0 0 0 0
0 0 0 0 0 0 0 0 0 0 0 0 0 0 0 0 0 0 0 0 0 0 0 0 0 0 0 0 0 0 0 0 0 0 0 0 0 0 0 0 0 0 0 0 0
0 0 0 0 0 0 0 0 0 0 0 0 0 0 0 0 0 0 0 0 0 0 0 0 0 0 0 0 0 0 0 0 0 0 0 0 0 0 0 0 0 0 0 0 0
CIN
-0 -0 -0 -0 -0 -0 -0 -0 -0 -0 -0 -0 -0 -0 -0 -0 -0 -0 -0 -0 -0 -0 -0 -0 -0 -0 -0 -0 -0 -0 -0 -0 -0 -0 -164 -135 -0 -0 -0 -0 -0 -0 -0 -0 -0
-0 -0 -0 -0 -0 -0 -0 -0 -0 -0 -0 -0 -0 -0 -0 -0 -0 -0 -0 -0 -0 -0 -0 -0 -0 -0 -0 -0 -0 -0 -0 -0 -0 -0 -161 -0 -0 -0 -0 -0 -0 -0 -0 -0 -0
-0 -0 -0 -0 -0 -0 -0 -0 -0 -0 -0 -0 -0 -0 -0 -0 -0 -0 -0 -0 -0 -0 -0 -0 -0 -0 -0 -0 -0 -0 -0 -0 -0 -0 -44 -17 -0 -0 -0 -0 -0 -0 -0 -0 -0
-0 -0 -0 -0 -0 -0 -0 -0 -0 -0 -0 -0 -0 -0 -0 -0 -0 -0 -0 -0 -0 -0 -0 -0 -0 -0 -0 -0 -0 -0 -0 -0 -0 -0 -249 -208 -302 -0 -0 -0 -0 -0 -0 -0 -0
-0 -0 -0 -0 -0 -0 -0 -0 -0 -0 -0 -0 -0 -0 -0 -0 -0 -0 -0 -0 -0 -0 -0 -0 -0 -0 -0 -0 -0 -0 -0 -0 -0 -0 -239 -341 -67 -94 -0 -0 -0 -0 -0 -0 -0
-0 -0 -0 -0 -0 -0 -0 -0 -0 -0 -0 -0 -0 -0 -0 -0 -0 -0 -0 -0 -0 -0 -0 -0 -0 -0 -0 -0 -0 -0 -0 -0 -0 -0 -0 -253 -168 -216 -0 -0 -0 -0 -0 -99 -263
-0 -0 -0 -0 -0 -0 -0 -0 -0 -0 -0 -0 -0 -0 -0 -0 -0 -0 -0 -0 -0 -0 -0 -0 -0 -0 -0 -0 -0 -0 -0 -0 -0 -0 -0 -125 -145 -124 -0 -0 -201 -0 -0 -0 -232
-0 -0 -0 -0 -0 -0 -0 -0 -0 -0 -0 -0 -0 -0 -0 -0 -0 -0 -0 -0 -0 -0 -0 -0 -0 -0 -0 -0 -0 -0 -0 -0 -0 -0 -0 -80 -20 -0 -256 -118 -200 -242 -286 -206 -306
-0 -0 -0 -0 -0 -0 -0 -0 -0 -0 -0 -0 -0 -0 -0 -0 -0 -0 -0 -0 -0 -0 -0 -0 -0 -0 -0 -0 -0 -0 -0 -0 -0 -0 -96 -164 -32 -0 -63 -200 -184 -242 -263 -272 -273
-0 -0 -0 -0 -0 -0 -0 -0 -0 -0 -0 -0 -0 -0 -0 -0 -0 -0 -0 -0 -0 -0 -0 -0 -0 -0 -0 -0 -0 -0 -0 -0 -0 -124 -171 -93 -68 -177 -18 -196 -159 -225 -243 -253 -248
-0 -0 -0 -0 -0 -0 -0 -0 -0 -0 -0 -0 -0 -0 -0 -0 -0 -0 -0 -0 -0 -0 -0 -0 -0 -0 -0 -0 -0 -0 -0 -0 -0 -0 -94 -65 -0 -60 -187 -220 -196 -202 -248 -238 -249
-0 -0 -0 -0 -0 -0 -0 -0 -0 -0 -0 -0 -0 -0 -0 -0 -0 -0 -0 -0 -0 -0 -0 -0 -0 -0 -0 -0 -0 -0 -0 -0 -0 -0 -11 -84 -0 -105 -0 -195 -189 -179 -213 -216 -221
-0 -0 -0 -0 -0 -0 -0 -0 -0 -0 -0 -0 -0 -0 -0 -0 -0 -0 -0 -0 -0 -0 -0 -0 -0 -0 -0 -0 -0 -0 -0 -0 -0 -0 -0 -0 -0 -0 -0 -202 -243 -241 -210 -231 -216
-0 -0 -0 -0 -0 -0 -0 -0 -0 -0 -0 -0 -0 -0 -0 -0 -0 -0 -0 -0 -0 -0 -0 -0 -0 -0 -0 -0 -0 -0 -0 -0 -0 -0 -0 -0 -0 -0 -0 -0 -208 -195 -230 -237 -275
-0 -0 -0 -0 -0 -0 -0 -0 -0 -0 -0 -0 -0 -0 -0 -0 -0 -0 -0 -0 -0 -0 -0 -0 -0 -0 -0 -0 -0 -0 -0 -0 -0 -0 -0 -0 -0 -0 -0 -0 -0 -126 -159 -212 -264
-0 -0 -0 -0 -0 -0 -0 -0 -0 -0 -0 -0 -0 -0 -0 -0 -0 -0 -0 -0 -0 -0 -0 -0 -0 -0 -0 -0 -0 -0 -0 -0 -0 -0 -0 -0 -0 -0 -0 -0 -0 -62 -91 -139 -241
-0 -0 -0 -0 -0 -0 -0 -0 -0 -0 -0 -0 -0 -0 -0 -0 -0 -0 -0 -0 -0 -0 -0 -0 -0 -0 -0 -0 -0 -0 -0 -0 -0 -0 -0 -0 -0 -0 -0 -0 -0 -49 -55 -101 -193
-0 -0 -0 -0 -0 -0 -0 -0 -0 -0 -0 -0 -0 -0 -0 -0 -0 -0 -0 -0 -0 -0 -0 -0 -0 -0 -0 -0 -0 -0 -0 -0 -0 -0 -0 -0 -0 -0 -0 -0 -0 -0 -55 -0 -194
-0 -0 -0 -0 -0 -0 -0 -0 -0 -0 -0 -0 -0 -0 -0 -0 -0 -0 -0 -0 -0 -0 -0 -0 -0 -0 -0 -0 -0 -0 -0 -0 -0 -0 -0 -0 -0 -0 -0 -0 -0 -22 -89 -150 -0
-0 -0 -0 -0 -0 -0 -0 -0 -0 -0 -0 -0 -0 -0 -0 -0 -0 -0 -0 -0 -0 -0 -0 -0 -0 -0 -0 -0 -0 -0 -0 -0 -0 -0 -0 -0 -0 -0 -0 -0 -0 -4 -68 -95 -226
-0 -0 -0 -0 -0 -0 -0 -0 -0 -0 -0 -0 -0 -0 -0 -0 -0 -0 -0 -0 -0 -0 -0 -0 -0 -0 -0 -0 -0 -0 -0 -0 -0 -0 -0 -0 -0 -0 -0 -0 -0 -0 -67 -73 -150
-0 -0 -0 -0 -0 -0 -0 -0 -0 -0 -0 -0 -0 -0 -0 -0 -0 -0 -0 -0 -0 -0 -0 -0 -0 -0 -0 -0 -0 -0 -0 -0 -0 -0 -0 -0 -0 -0 -0 -0 -0 -0 -0 -84 -126
-0 -0 -0 -0 -0 -0 -0 -0 -0 -0 -0 -0 -0 -0 -0 -0 -0 -0 -0 -0 -0 -0 -0 -0 -0 -0 -0 -0 -0 -0 -0 -0 -0 -0 -0 -0 -0 -0 -0 -0 -0 -0 -0 -101 -157
-0 -0 -0 -0 -0 -0 -0 -0 -0 -0 -0 -0 -0 -0 -0 -0 -0 -0 -0 -0 -0 -0 -0 -0 -0 -0 -0 -0 -0 -0 -0 -0 -0 -0 -0 -0 -0 -0 -0 -0 -0 -0 -0 -0 -72
-0 -0 -0 -0 -0 -0 -0 -0 -0 -0 -0 -0 -0 -0 -0 -0 -0 -0 -0 -0 -0 -0 -0 -0 -0 -0 -0 -0 -0 -0 -0 -0 -0 -0 -0 -0 -0 -0 -0 -0 -0 -0 -0 -0 -0
-0 -0 -0 -0 -0 -0 -0 -0 -0 -0 -0 -0 -0 -0 -0 -0 -0 -0 -0 -0 -0 -0 -0 -0 -0 -0 -0 -0 -0 -0 -0 -0 -0 -0 -0 -0 -0 -0 -0 -0 -0 -0 -0 -0 -0
-0 -0 -0 -0 -0 -0 -0 -0 -0 -0 -0 -0 -0 -0 -0 -0 -0 -0 -0 -0 -0 -0 -0 -0 -0 -0 -0 -0 -0 -0 -0 -0 -0 -0 -0 -0 -0 -0 -0 -0 -0 -0 -0 -0 -0
Wind_Speed
31 31 30 28 27 27 26 24 22 21 19 18 19 19 19 19 18 15 8 9 7 7 5 7 10 11 13 8 8 9 17 19 15 13 12 15 8 18 19 19 10 16 13 17 24
30 31 29 28 27 26 25 24 22 21 20 19 19 19 18 18 14 13 7 9 5 7 6 4 4 6 6 6 6 13 20 18 15 17 19 19 15 15 15 17 17 19 17 22 23
29 29 29 29 28 27 26 24 22 21 20 19 19 18 17 16 13 12 10 8 6 7 7 7 7 7 5 5 8 12 18 15 17 17 16 17 11 13 15 16 18 17 19 20 20
30 30 29 29 29 28 27 24 22 21 20 20 19 17 16 12 11 11 11 10 7 6 6 6 6 4 16 17 7 18 18 18 15 15 17 16 13 11 13 15 14 16 20 20 18
31 31 31 31 30 29 28 25 24 21 21 20 17 16 14 12 11 15 9 8 4 5 7 7 7 4 16 10 9 20 18 12 15 17 14 14 9 12 13 12 13 17 19 19 19
32 32 32 32 31 31 29 27 24 23 22 18 15 14 15 12 13 12 9 8 4 6 7 8 11 11 8 9 7 7 7 7 6 6 8 7 10 11 12 12 13 16 19 19 19
33 33 33 33 32 32 30 28 26 25 18 14 13 15 15 13 12 10 8 6 6 10 11 11 12 11 10 10 8 5 4 5 9 6 8 9 7 11 11 9 11 17 16 18 20
34 34 34 34 33 33 31 28 26 23 17 14 14 15 15 13 12 9 6 6 8 12 14 15 13 10 11 7 8 4 3 11 6 4 7 9 14 10 10 9 10 13 15 18 18
35 35 35 35 34 33 31 28 24 22 17 15 16 16 13 12 12 11 6 5 5 10 15 13 12 10 8 5 4 5 12 9 6 4 6 11 8 8 6 7 8 10 11 15 14
36 36 35 35 35 31 30 23 21 20 18 18 17 15 15 11 16 13 9 8 10 10 10 11 11 13 10 9 10 9 6 7 7 6 7 9 9 8 4 5 8 7 5 7 10
36 36 36 35 35 30 27 23 25 21 23 20 19 20 20 19 16 12 10 8 12 14 14 15 14 17 17 15 12 4 2 9 3 4 7 16 16 5 1 4 5 7 2 1 2
36 36 36 36 33 29 23 21 22 24 28 24 25 23 21 17 16 13 5 10 12 13 13 16 21 16 12 14 12 8 4 0 8 9 4 1 22 7 3 6 10 7 5 4 3
35 37 37 37 31 25 22 19 26 20 25 22 16 15 13 6 14 14 6 11 14 14 14 15 15 12 13 14 12 12 5 8 10 11 7 15 18 12 4 5 5 14 7 6 6
37 37 36 36 21 27 21 22 29 17 23 20 17 15 9 7 15 9 7 12 16 18 16 19 15 14 10 15 10 17 5 12 8 8 15 6 18 12 8 3 11 10 10 9 9
37 36 35 30 25 25 21 28 22 18 22 17 15 12 9 7 12 12 11 14 16 15 14 18 14 12 18 20 10 20 12 11 13 13 16 11 18 15 15 5 8 12 12 13 13
37 37 36 23 22 19 27 27 15 19 21 17 14 15 12 14 13 13 10 11 14 14 17 18 15 18 18 15 14 11 14 16 17 16 20 15 17 18 15 12 5 8 10 14 13
39 38 34 23 25 25 25 18 20 20 20 18 17 16 17 15 13 14 10 12 14 17 20 21 22 20 17 19 16 12 13 18 20 19 24 20 20 18 16 14 16 15 11 11 11
41 38 23 23 24 24 17 17 20 21 22 21 20 21 18 14 15 14 18 17 17 18 18 20 23 16 13 15 17 12 15 17 20 21 24 19 20 21 18 15 17 20 24 21 14
39 29 25 22 22 16 14 18 20 20 22 23 24 21 19 18 15 14 16 19 16 11 20 19 21 17 14 14 14 15 17 17 21 22 24 22 22 23 15 15 16 18 21 21 16
32 29 25 26 16 15 15 18 19 19 21 20 21 20 19 18 18 15 14 15 17 15 18 19 24 20 16 14 16 15 10 19 19 24 25 22 22 20 16 16 12 17 19 21 17
27 27 24 18 17 17 17 18 22 22 19 18 19 22 20 20 19 19 18 15 12 14 13 15 20 19 18 18 19 18 20 19 20 23 26 28 25 17 14 12 16 17 18 18 14
26 27 20 18 21 21 21 20 21 21 17 18 19 22 25 24 23 21 19 18 12 12 16 14 18 23 24 21 21 22 24 20 24 25 25 27 27 17 14 15 14 17 17 14 11
28 26 22 21 25 25 26 26 24 23 20 18 19 19 20 22 26 25 25 23 20 17 16 12 21 25 23 21 19 23 22 21 23 24 24 27 27 18 18 18 18 20 18 17 15
26 27 23 21 22 25 28 29 29 26 26 23 23 24 27 28 25 27 25 24 23 22 19 13 20 23 28 25 20 23 24 23 22 27 26 24 33 25 23 24 25 24 20 18 17
25 25 24 27 24 26 26 28 28 28 26 26 27 25 24 28 27 28 29 32 29 23 21 22 28 24 27 28 28 29 27 24 27 31 29 30 25 25 28 28 25 21 21 21 21
27 26 26 28 29 31 28 28 30 31 30 31 31 31 30 30 30 32 30 30 30 25 26 24 32 29 34 30 31 36 33 28 26 27 31 34 34 27 29 28 28 28 28 26 26
23 23 25 27 28 29 30 30 29 30 28 27 30 36 36 34 32 34 34 34 31 29 30 31 30 29 38 31 34 39 33 33 33 31 31 32 35 29 30 29 30 31 31 32 31
Wind_Direction
341 340 335 329 326 324 321 316 309 302 290 277 282 287 283 281 291 303 32 330 350 333 348 317 288 275 269 305 316 2 141 162 138 95 53 91 333 84 92 74 5 50 27 76 105
334 335 329 326 323 319 316 312 306 299 292 282 287 308 307 298 328 131 27 311 18 49 6 359 56 308 322 321 346 119 179 181 149 147 130 115 85 75 55 78 80 95 58 95 106
328 327 324 323 321 317 313 307 300 296 292 287 290 318 323 317 53 30 332 86 27 37 331 314 307 309 47 344 83 113 168 153 149 125 112 111 57 57 80 113 126 108 98 103 105
325 323 321 320 319 317 312 305 297 290 285 286 304 327 333 3 8 29 329 95 77 13 5 354 341 51 127 134 69 157 160 167 120 108 113 110 75 64 97 117 90 104 114 109 107
323 322 321 319 318 315 312 304 295 281 279 289 328 339 347 348 14 311 28 79 31 10 353 346 330 348 126 102 90 160 156 78 95 105 85 87 33 33 108 66 73 108 120 121 119
322 321 319 317 316 315 312 306 299 295 296 323 340 346 332 337 335 344 50 82 324 330 345 322 300 297 319 317 328 353 52 42 354 336 331 24 346 30 94 66 83 116 131 129 133
319 318 317 316 314 314 312 308 308 315 347 356 355 330 319 322 353 21 44 46 309 298 306 310 298 302 316 304 326 357 10 355 318 339 334 39 48 117 46 82 101 133 132 139 144
318 316 315 315 312 313 311 309 320 343 360 1 347 323 312 325 353 18 20 3 309 291 287 294 300 312 311 342 315 9 23 119 338 36 33 101 150 110 81 86 109 129 139 147 148
318 316 314 314 312 310 310 313 338 347 359 356 331 316 320 328 318 331 344 339 354 316 291 300 309 316 328 5 7 326 140 131 86 76 66 136 145 35 85 88 116 129 136 148 149
317 315 313 312 310 304 305 344 348 339 342 335 324 314 305 310 299 306 305 305 302 320 319 303 305 292 308 297 145 138 125 131 123 135 144 148 171 29 44 128 143 138 138 140 151
316 315 313 310 310 304 314 340 330 333 323 316 305 295 290 294 304 302 293 296 288 289 287 294 285 276 281 294 293 316 45 153 88 23 157 186 196 170 66 153 169 165 204 244 179
315 315 313 310 307 310 334 341 344 329 299 314 294 291 286 296 294 294 311 291 287 287 294 287 275 285 295 291 292 297 328 158 326 333 148 288 212 211 212 200 195 195 219 261 277
315 318 317 313 309 337 340 345 331 346 313 306 330 319 293 293 291 287 290 290 287 286 288 283 292 292 279 286 287 289 284 305 317 328 327 323 278 203 315 213 259 193 241 248 219
319 322 321 313 349 326 337 336 323 349 311 309 314 320 325 319 295 301 294 298 290 282 287 285 284 291 282 283 283 280 248 294 310 323 316 318 316 327 337 322 193 197 213 221 212
315 318 321 330 335 322 333 317 337 335 298 315 319 349 340 306 327 300 291 292 288 288 286 288 286 275 286 283 275 286 285 276 295 303 313 314 313 321 328 314 205 207 215 212 215
307 313 316 340 339 342 317 314 351 316 295 311 326 320 320 294 304 328 302 302 299 293 289 283 296 290 290 297 295 298 290 290 297 301 297 304 304 309 316 316 273 238 236 218 219
306 303 309 329 320 323 322 334 311 301 312 307 310 316 307 308 291 307 301 282 286 286 282 285 281 286 290 290 298 288 285 285 286 289 295 308 304 304 318 311 313 309 294 280 258
305 305 328 321 317 316 327 316 302 307 301 311 307 305 299 310 301 292 292 285 286 285 294 286 281 283 293 289 292 282 284 286 291 294 298 308 308 315 320 317 315 314 308 309 297
309 321 321 321 321 322 317 302 303 304 305 302 300 301 296 297 303 299 292 285 288 282 280 292 292 295 288 298 296 292 285 295 296 303 301 306 311 312 325 322 322 324 323 321 323
320 317 315 317 329 314 306 303 302 303 304 307 301 304 299 296 290 294 296 304 292 289 286 291 288 296 295 298 302 298 306 291 297 294 296 305 309 314 324 328 331 329 329 325 328
324 315 324 334 324 307 301 302 298 296 301 306 302 294 296 296 294 290 292 303 313 312 304 296 287 291 292 291 287 293 292 294 297 294 294 298 304 315 319 332 331 331 331 330 339
321 310 324 328 305 303 299 301 301 300 308 301 301 293 287 288 289 289 289 292 305 317 305 301 298 288 286 291 289 289 289 291 288 293 295 296 298 314 319 324 330 330 330 332 339
317 312 319 312 299 296 295 294 295 295 296 299 297 295 295 289 286 285 284 288 292 296 301 299 294 289 294 293 291 288 288 288 290 293 289 292 299 309 311 313 316 318 315 315 318
317 308 312 313 305 300 297 292 288 290 289 289 289 290 287 286 287 287 288 292 294 289 292 291 291 288 283 290 300 292 290 286 280 282 290 290 291 301 303 305 305 309 308 310 312
317 308 309 301 302 302 299 295 293 291 288 287 286 283 285 283 285 284 286 285 287 289 287 285 283 285 286 287 287 287 288 288 280 282 283 293 295 301 301 302 305 309 310 309 311
311 307 307 300 299 296 294 292 292 289 287 284 282 283 282 281 282 284 288 288 286 288 281 284 281 285 282 284 284 281 282 283 284 287 287 288 290 298 300 301 301 302 305 305 306
320 315 307 302 300 296 294 291 291 294 289 288 288 285 280 282 285 285 285 284 283 285 283 281 280 280 279 284 284 279 277 278 281 283 286 286 292 299 299 300 300 302 305 306 308